Location: Rounton
(54.4000°N, 1.3500°W)
Time: 11:46:50
(UTC+00:00)

Envisat - Pass Details

Date: 29 September 2023
Orbit: 762 x 764 km, 98.3° (Epoch: 07 December)

Event Time Altitude Azimuth Distance (km) Brightness Sun altitude
Rises 04:34:28 0° 17° (NNE) 3,247 6.9 -21.7°
Reaches altitude 10° 04:36:51 10° 23° (NNE) 2,316 6.2 -21.4°
Maximum altitude 04:41:51 54° 100° (E) 935 3.7 -20.7°
Drops below altitude 10° 04:46:48 10° 178° (S) 2,299 5.2 -20.1°
Enters shadow 04:46:58 - 178° (S) 2,360 5.3 -20.0°
